Total_Precipitation_Accumulation
0.24 0.35 0.21 0.06 0.03 0.02 0.00 0.00 0.00 0.01 0.03 0.01 0.00 0.00 0.00 0.00 0.00 0.00 0.00 0.00 0.00 0.00 0.00 0.00 0.01 0.01 0.00 0.00 0.00 0.00 0.00 0.03 0.04 0.07 0.07 0.11 0.10 0.02 0.00 0.00 0.00 0.00 0.00 0.00 0.00 0.00 0.00 0.00 0.00
0.47 0.50 0.25 0.09 0.03 0.00 0.00 0.00 0.00 0.01 0.01 0.01 0.00 0.00 0.01 0.00 0.00 0.01 0.02 0.01 0.00 0.00 0.00 0.00 0.01 0.00 0.00 0.00 0.00 0.00 0.01 0.02 0.03 0.04 0.07 0.11 0.02 0.00 0.00 0.00 0.00 0.00 0.00 0.00 0.00 0.00 0.00 0.00 0.00
0.52 0.50 0.23 0.10 0.03 0.00 0.00 0.00 0.00 0.00 0.01 0.02 0.01 0.00 0.00 0.00 0.00 0.00 0.01 0.01 0.00 0.00 0.00 0.00 0.01 0.00 0.00 0.00 0.00 0.00 0.00 0.01 0.01 0.02 0.03 0.01 0.00 0.00 0.00 0.00 0.00 0.00 0.00 0.00 0.00 0.00 0.00 0.00 0.00
0.52 0.67 0.50 0.09 0.01 0.00 0.00 0.00 0.00 0.00 0.03 0.02 0.03 0.03 0.00 0.00 0.00 0.00 0.01 0.01 0.00 0.00 0.00 0.01 0.01 0.00 0.00 0.00 0.00 0.01 0.00 0.00 0.00 0.00 0.00 0.00 0.00 0.00 0.00 0.00 0.00 0.00 0.00 0.00 0.00 0.00 0.00 0.00 0.00
0.38 1.08 0.53 0.16 0.00 0.00 0.00 0.00 0.00 0.00 0.02 0.04 0.06 0.06 0.03 0.03 0.00 0.00 0.01 0.01 0.00 0.00 0.00 0.01 0.02 0.00 0.00 0.00 0.01 0.02 0.01 0.00 0.00 0.00 0.00 0.00 0.00 0.00 0.00 0.00 0.00 0.00 0.00 0.00 0.00 0.00 0.00 0.00 0.00
0.54 0.86 0.81 0.16 0.00 0.00 0.00 0.00 0.00 0.00 0.00 0.02 0.07 0.13 0.15 0.03 0.04 0.01 0.00 0.00 0.00 0.00 0.01 0.02 0.02 0.00 0.00 0.00 0.01 0.02 0.01 0.00 0.00 0.00 0.00 0.00 0.00 0.00 0.00 0.00 0.00 0.00 0.00 0.00 0.00 0.00 0.00 0.00 0.00
0.70 0.51 0.84 0.19 0.00 0.00 0.00 0.00 0.00 0.00 0.00 0.00 0.08 0.14 0.11 0.11 0.18 0.11 0.01 0.00 0.00 0.01 0.01 0.03 0.02 0.00 0.00 0.00 0.02 0.01 0.01 0.00 0.00 0.00 0.00 0.00 0.00 0.00 0.00 0.00 0.00 0.00 0.00 0.00 0.00 0.00 0.00 0.00 0.00
0.58 0.80 0.24 0.21 0.00 0.00 0.00 0.00 0.00 0.00 0.00 0.00 0.07 0.13 0.13 0.17 0.38 0.24 0.07 0.01 0.00 0.02 0.03 0.02 0.01 0.00 0.00 0.00 0.01 0.01 0.00 0.00 0.00 0.00 0.00 0.00 0.00 0.00 0.00 0.00 0.00 0.00 0.00 0.00 0.00 0.00 0.00 0.00 0.00
0.53 0.93 0.20 0.12 0.02 0.00 0.00 0.00 0.00 0.00 0.01 0.01 0.02 0.06 0.10 0.26 0.43 0.34 0.15 0.07 0.02 0.04 0.02 0.01 0.00 0.00 0.00 0.00 0.00 0.01 0.00 0.01 0.00 0.00 0.00 0.00 0.00 0.00 0.00 0.00 0.00 0.00 0.00 0.00 0.00 0.00 0.00 0.00 0.00
0.57 0.69 0.19 0.02 0.03 0.00 0.00 0.00 0.00 0.00 0.01 0.09 0.12 0.06 0.08 0.10 0.25 0.28 0.24 0.09 0.03 0.04 0.05 0.01 0.00 0.00 0.00 0.00 0.00 0.00 0.00 0.00 0.00 0.00 0.00 0.00 0.00 0.00 0.00 0.00 0.00 0.00 0.00 0.00 0.00 0.00 0.00 0.00 0.00
0.67 0.46 0.19 0.06 0.03 0.00 0.00 0.00 0.00 0.00 0.02 0.01 0.03 0.04 0.05 0.03 0.08 0.18 0.39 0.32 0.18 0.05 0.04 0.01 0.00 0.00 0.00 0.00 0.00 0.00 0.00 0.00 0.00 0.00 0.00 0.00 0.00 0.00 0.00 0.00 0.00 0.00 0.00 0.00 0.00 0.00 0.00 0.00 0.00
0.84 0.58 0.30 0.16 0.05 0.00 0.00 0.00 0.00 0.00 0.00 0.00 0.12 0.19 0.17 0.06 0.06 0.13 0.23 0.56 0.34 0.09 0.01 0.00 0.00 0.00 0.00 0.00 0.00 0.00 0.00 0.00 0.00 0.00 0.00 0.00 0.00 0.00 0.00 0.00 0.00 0.00 0.00 0.00 0.00 0.00 0.00 0.00 0.00
0.92 0.76 0.36 0.24 0.05 0.01 0.00 0.00 0.00 0.00 0.00 0.04 0.11 0.07 0.12 0.19 0.17 0.27 0.22 0.32 0.49 0.15 0.02 0.00 0.00 0.00 0.00 0.00 0.00 0.00 0.00 0.00 0.00 0.00 0.00 0.00 0.00 0.00 0.00 0.00 0.00 0.00 0.00 0.00 0.00 0.00 0.00 0.00 0.00
0.82 0.93 0.52 0.22 0.05 0.02 0.00 0.00 0.00 0.00 0.04 0.11 0.14 0.11 0.19 0.21 0.17 0.18 0.15 0.15 0.34 0.37 0.26 0.09 0.02 0.00 0.00 0.00 0.00 0.00 0.00 0.00 0.00 0.00 0.00 0.00 0.00 0.00 0.00 0.00 0.00 0.00 0.00 0.00 0.00 0.00 0.00 0.00 0.00
0.51 0.97 0.58 0.19 0.03 0.03 0.01 0.00 0.00 0.00 0.04 0.10 0.17 0.24 0.30 0.27 0.18 0.15 0.15 0.14 0.19 0.25 0.28 0.25 0.11 0.01 0.00 0.00 0.00 0.00 0.00 0.00 0.00 0.00 0.00 0.00 0.00 0.00 0.00 0.00 0.00 0.00 0.00 0.00 0.00 0.00 0.00 0.00 0.00
0.15 0.76 0.88 0.27 0.06 0.06 0.05 0.00 0.00 0.00 0.01 0.02 0.07 0.17 0.22 0.18 0.18 0.15 0.17 0.21 0.19 0.22 0.31 0.30 0.14 0.05 0.00 0.00 0.00 0.00 0.00 0.00 0.00 0.00 0.00 0.00 0.00 0.00 0.00 0.00 0.00 0.00 0.00 0.00 0.00 0.00 0.00 0.00 0.00
0.05 0.24 0.60 0.53 0.19 0.17 0.13 0.03 0.00 0.00 0.00 0.00 0.01 0.04 0.14 0.25 0.22 0.17 0.16 0.22 0.22 0.18 0.27 0.43 0.32 0.17 0.02 0.10 0.07 0.00 0.00 0.00 0.00 0.00 0.00 0.00 0.00 0.00 0.00 0.00 0.00 0.00 0.00 0.00 0.00 0.00 0.00 0.00 0.00
0.01 0.05 0.14 0.33 0.26 0.28 0.21 0.16 0.02 0.00 0.00 0.00 0.00 0.00 0.02 0.06 0.13 0.28 0.25 0.20 0.24 0.24 0.26 0.43 0.55 0.57 0.29 0.22 0.23 0.04 0.00 0.00 0.00 0.00 0.00 0.00 0.00 0.00 0.00 0.00 0.00 0.00 0.00 0.00 0.00 0.00 0.00 0.00 0.00
0.00 0.01 0.03 0.07 0.08 0.25 0.31 0.21 0.13 0.01 0.00 0.00 0.00 0.00 0.00 0.00 0.03 0.09 0.19 0.28 0.28 0.25 0.25 0.31 0.22 0.29 0.62 0.57 0.34 0.17 0.02 0.02 0.00 0.00 0.00 0.00 0.00 0.00 0.00 0.00 0.00 0.00 0.00 0.00 0.00 0.00 0.00 0.00 0.00
0.00 0.00 0.00 0.01 0.01 0.07 0.11 0.10 0.19 0.10 0.00 0.00 0.00 0.00 0.00 0.00 0.00 0.00 0.02 0.09 0.13 0.26 0.41 0.41 0.21 0.16 0.25 0.42 0.28 0.18 0.12 0.08 0.02 0.00 0.00 0.01 0.00 0.00 0.00 0.00 0.01 0.01 0.01 0.01 0.02 0.03 0.03 0.05 0.01
0.00 0.00 0.00 0.00 0.00 0.00 0.01 0.02 0.02 0.07 0.02 0.00 0.00 0.00 0.00 0.00 0.00 0.00 0.00 0.01 0.02 0.07 0.12 0.14 0.13 0.23 0.31 0.35 0.35 0.42 0.46 0.31 0.17 0.02 0.01 0.01 0.04 0.11 0.17 0.21 0.17 0.14 0.08 0.08 0.08 0.07 0.11 0.09 0.05
0.00 0.00 0.00 0.00 0.00 0.00 0.00 0.00 0.01 0.01 0.02 0.01 0.00 0.00 0.00 0.00 0.00 0.00 0.00 0.00 0.00 0.00 0.01 0.02 0.09 0.13 0.15 0.23 0.20 0.24 0.16 0.24 0.11 0.25 0.27 0.20 0.13 0.17 0.21 0.28 0.33 0.38 0.33 0.23 0.13 0.11 0.09 0.06 0.03
0.00 0.00 0.00 0.00 0.00 0.00 0.00 0.00 0.00 0.00 0.00 0.00 0.00 0.00 0.00 0.00 0.00 0.00 0.00 0.00 0.00 0.00 0.00 0.00 0.01 0.06 0.18 0.22 0.19 0.17 0.06 0.08 0.26 0.18 0.21 0.10 0.07 0.10 0.22 0.33 0.40 0.39 0.26 0.12 0.06 0.05 0.04 0.05 0.05
0.00 0.00 0.00 0.00 0.01 0.02 0.00 0.00 0.00 0.00 0.00 0.00 0.00 0.00 0.00 0.00 0.00 0.00 0.00 0.00 0.00 0.00 0.00 0.00 0.01 0.04 0.10 0.09 0.05 0.12 0.17 0.16 0.14 0.08 0.17 0.31 0.35 0.37 0.41 0.40 0.37 0.28 0.24 0.26 0.19 0.07 0.02 0.01 0.01
0.00 0.01 0.03 0.06 0.12 0.02 0.00 0.00 0.00 0.00 0.00 0.00 0.00 0.00 0.00 0.00 0.00 0.00 0.00 0.00 0.00 0.00 0.00 0.00 0.00 0.01 0.03 0.07 0.11 0.13 0.15 0.07 0.06 0.12 0.19 0.26 0.29 0.29 0.23 0.20 0.22 0.27 0.26 0.17 0.06 0.00 0.00 0.00 0.00
0.01 0.04 0.07 0.00 0.01 0.02 0.00 0.00 0.00 0.00 0.00 0.00 0.00 0.00 0.00 0.00 0.00 0.00 0.00 0.00 0.00 0.00 0.00 0.00 0.00 0.00 0.02 0.05 0.07 0.04 0.03 0.04 0.09 0.10 0.14 0.16 0.15 0.14 0.10 0.07 0.05 0.03 0.02 0.00 0.00 0.00 0.00 0.00 0.00
0.02 0.02 0.03 0.09 0.03 0.00 0.00 0.00 0.00 0.00 0.00 0.00 0.00 0.00 0.00 0.00 0.00 0.00 0.00 0.00 0.00 0.00 0.00 0.00 0.00 0.00 0.00 0.00 0.01 0.01 0.03 0.02 0.03 0.05 0.06 0.07 0.07 0.07 0.07 0.06 0.04 0.01 0.00 0.00 0.00 0.00 0.00 0.00 0.00
0.01 0.02 0.02 0.06 0.15 0.03 0.00 0.00 0.00 0.00 0.00 0.00 0.00 0.00 0.00 0.00 0.00 0.00 0.00 0.00 0.00 0.00 0.00 0.00 0.00 0.00 0.00 0.00 0.00 0.00 0.00 0.00 0.00 0.02 0.04 0.05 0.04 0.03 0.02 0.01 0.00 0.00 0.00 0.00 0.00 0.00 0.00 0.00 0.00
0.05 0.03 0.02 0.01 0.01 0.00 0.00 0.00 0.00 0.00 0.00 0.00 0.00 0.00 0.00 0.00 0.00 0.00 0.00 0.00 0.00 0.00 0.00 0.00 0.00 0.00 0.00 0.00 0.00 0.00 0.00 0.00 0.00 0.00 0.00 0.01 0.02 0.02 0.01 0.00 0.00 0.00 0.00 0.00 0.00 0.00 0.00 0.00 0.00
0.07 0.07 0.09 0.03 0.01 0.00 0.00 0.00 0.00 0.00 0.00 0.00 0.00 0.00 0.00 0.00 0.00 0.00 0.00 0.00 0.00 0.00 0.00 0.00 0.00 0.00 0.00 0.00 0.00 0.00 0.00 0.00 0.00 0.00 0.00 0.00 0.00 0.00 0.00 0.00 0.00 0.00 0.00 0.00 0.00 0.00 0.00 0.00 0.00